Weather Roundup
Issued by NWS Springfield, MO

Home | Current Version | Previous Version | Text Only | Print | Product List | Glossary On
Versions: 1 2 3 4 5 6 7 8 9 10 11 12 13 14 15 16 17 18 19 20 21 22 23 24 25 26 27 28 29 30 31 32 33 34 35 36 37 38 39 40 41 42 43 44 45 46 47 48 49 50
000
NZUS99 KSGF 300559
HRRSGF

HOURLY WEATHER
NATIONAL WEATHER SERVICE SPRINGFIELD MO
1200 AM CST FRI JAN 30 2015

......SGF CWA......

CITY           SKY/WX    TMP DP  RH WIND       PRES   REMARKS
SPRINGFIELD    CLEAR     27  22  81 N6        30.48R WCI  20
6HR MIN TEMP:  27; 6HR MAX TEMP:  38;

JOPLIN         CLEAR     30  25  81 N3        30.53R
6HR MIN TEMP:  30; 6HR MAX TEMP:  38;

WEST PLAINS    MOCLDY    33  25  72 N8        30.45R WCI  26
6HR MIN TEMP:  31; 6HR MAX TEMP:  40;

ROLLA          CLOUDY    34  24  67 NW9       30.44R WCI  27
6HR MIN TEMP:  34; 6HR MAX TEMP:  38;

OSAGE BEACH    CLOUDY    34  21  60 N10       30.49R WCI  26

......SURROUNDING SGF CWA......

CITY           SKY/WX    TMP DP  RH WIND       PRES   REMARKS
CHANUTE        CLEAR     25  22  88 CALM      30.53S
PARSONS        CLEAR     26  23  88 NE3       30.54R
COFFEYVILLE    CLEAR     30  25  81 N3        30.54R
EMPORIA        CLEAR     27  23  85 NW3       30.54R
SILOAM SPRINGS CLEAR     32  21  64 N5        30.51S WCI  27
HARRISON AR    CLEAR     32  27  81 NW8       30.47R WCI  25
NEAR YELLVILLE CLEAR     36  25  64 NW5       30.48R WCI  32

......KANSAS AND MISSOURI......

CITY           SKY/WX    TMP DP  RH WIND       PRES   REMARKS
KANSAS CTY INT CLEAR     25  21  85 N9        30.52S WCI  15
DOWNTOWN KC    CLEAR     30  23  75 CALM      30.54R
COLUMBIA       CLEAR     30  22  72 NW12      30.48R WCI  20
SEDALIA        CLEAR     30  23  75 N7        30.51F WCI  23
ST JOSEPH      CLEAR     20  17  88 NE7       30.54S WCI  11
ST LOUIS       CLOUDY    37  24  59 NW12      30.44R WCI  29
SPIRIT OF STL  CLOUDY    36  24  62 NW9G17    30.44R WCI  29
KIRKSVILLE     PTCLDY    27  21  78 NW8       30.50R WCI  19
WICHITA        PTCLDY    31  22  69 CALM      30.53R
TOPEKA         CLEAR     20  19  96 CALM      30.55R
OLATHE         CLEAR     30  23  75 N6        30.51R WCI  24

......TENNESSEE......

CITY           SKY/WX    TMP DP  RH WIND       PRES   REMARKS
MEMPHIS        MOCLDY    43  28  55 N10       30.41S
NASHVILLE      CLOUDY    40  30  67 N12       30.34R WCI  33

......ARKANSAS.......

CITY           SKY/WX    TMP DP  RH WIND       PRES   REMARKS
FAYETTEVILLE   CLEAR     29  25  85 VRB3      30.49S
FT SMITH       PTCLDY    39  29  67 CALM      30.50S
LITTLE ROCK    PTCLDY    37  28  70 N6        30.47R WCI  32

......OKLAHOMA.......

CITY           SKY/WX    TMP DP  RH WIND       PRES   REMARKS
TULSA          MOCLDY    32  27  81 NW5       30.54R WCI  27
PONCA CITY     FAIR      24  20  84 CALM      30.55R
MCALESTER      CLOUDY    42  31  64 N8        30.51R
OKLAHOMA CITY  CLOUDY    43  27  53 NE10      30.51F

......IOWA............

CITY           SKY/WX    TMP DP  RH WIND       PRES   REMARKS
DES MOINES     PTCLDY    25  18  74 N10       30.53R WCI  15
QUAD CITIES    PTCLDY    27  18  69 NW12      30.43R WCI  17

......ILLINOIS........

CITY           SKY/WX    TMP DP  RH WIND       PRES   REMARKS
QUINCY         MOCLDY    28  20  71 NW16      30.46R WCI  16
CHICAGO        CLOUDY    29  22  75 N15       30.31R WCI  18




USA.gov is the U.S. government's official web portal to all federal, state and local government web resources and services.